�N����,����,�~����,�C��,���x,�C��,����,���ϕ���,�ő�u�ԕ���,�ő厞����,���˗�,�I�_���x,�n�����x,�ő啗���N��,DTYPE
"20/09/11","00:10",0.0,22.9,93.5,1007.8,292.3,1.0,1.7,329.9,0.00,21.8,25.5,"00:06:24",1
"20/09/11","00:20",0.0,22.9,93.5,1007.4,300.9,1.0,1.9,337.9,0.00,21.8,25.1,"00:12:32",1
"20/09/11","00:30",0.0,22.6,93.6,1007.6,290.2,0.6,1.0,282.8,0.00,21.6,25.3,"00:22:00",1
"20/09/11","00:40",0.0,22.5,93.7,1007.6,40.7,0.5,0.9,295.6,0.00,21.5,25.3,"00:31:36",1
"20/09/11","00:50",0.0,22.4,93.8,1007.4,313.0,1.1,1.6,327.4,0.00,21.4,25.2,"00:45:04",1
"20/09/11","01:00",0.0,22.4,93.8,1007.1,318.0,1.2,2.0,339.9,0.00,21.4,25.1,"00:53:20",1
"20/09/11","01:10",0.0,22.3,93.9,1007.4,289.5,0.8,1.0,304.9,0.00,21.3,25.1,"01:06:36",1
"20/09/11","01:20",0.0,22.2,94.0,1007.4,307.4,1.1,1.8,334.1,0.00,21.2,25.2,"01:18:56",1
"20/09/11","01:30",0.0,22.2,94.0,1007.6,296.1,1.1,1.7,330.6,0.00,21.2,24.9,"01:20:16",1
"20/09/11","01:40",0.0,22.1,94.1,1007.6,307.4,1.2,1.9,325.8,0.00,21.1,25.0,"01:38:56",1
"20/09/11","01:50",0.0,22.0,94.2,1007.4,306.8,1.1,1.4,316.2,0.00,21.1,24.9,"01:49:04",1
"20/09/11","02:00",0.0,22.0,94.3,1007.1,310.6,1.3,1.9,311.0,0.00,21.1,24.7,"01:59:20",1
"20/09/11","02:10",0.0,22.0,94.3,1007.6,302.1,1.1,1.7,326.2,0.00,21.1,24.7,"02:00:24",1
"20/09/11","02:20",0.0,22.1,94.4,1007.6,285.8,1.0,1.2,318.6,0.00,21.2,25.0,"02:10:40",1
"20/09/11","02:30",0.0,22.2,94.4,1007.8,288.6,0.8,1.2,272.5,0.00,21.3,24.8,"02:25:20",1
"20/09/11","02:40",0.0,22.3,94.4,1007.8,294.3,1.1,1.3,272.2,0.00,21.4,24.6,"02:33:36",1
"20/09/11","02:50",0.0,22.5,94.4,1007.6,303.3,1.0,1.7,312.2,0.00,21.6,24.6,"02:43:04",1
"20/09/11","03:00",0.0,22.6,94.4,1007.8,327.2,0.8,1.3,316.0,0.00,21.7,24.8,"02:51:44",1
"20/09/11","03:10",0.0,22.6,94.4,1007.8,319.4,0.2,1.3,323.8,0.00,21.7,24.8,"03:00:24",1
"20/09/11","03:20",0.0,22.7,94.5,1007.6,308.3,0.7,1.3,320.4,0.00,21.8,24.9,"03:15:28",1
"20/09/11","03:30",0.0,22.8,94.5,1007.6,314.3,0.8,1.4,326.8,0.00,21.9,24.8,"03:29:44",1
"20/09/11","03:40",0.0,22.8,94.5,1007.6,331.0,1.1,1.6,330.7,0.00,21.9,24.8,"03:38:48",1
"20/09/11","03:50",0.0,22.8,94.5,1007.8,317.5,1.2,1.8,337.1,0.00,21.9,24.8,"03:43:52",1
"20/09/11","04:00",0.0,22.8,94.6,1007.8,285.7,0.8,1.2,311.1,0.00,21.9,24.9,"03:57:20",1
"20/09/11","04:10",0.0,22.7,94.6,1007.6,278.2,0.8,1.1,287.5,0.00,21.8,24.8,"04:02:48",1
"20/09/11","04:20",0.0,22.7,94.6,1008.1,313.1,1.3,2.6,325.5,0.00,21.8,24.8,"04:19:28",1
"20/09/11","04:30",0.0,22.8,94.7,1007.6,286.0,1.0,2.0,315.1,0.00,21.9,24.9,"04:21:04",1
"20/09/11","04:40",0.0,22.9,94.7,1007.8,267.2,0.7,1.3,244.4,0.00,22.0,24.9,"04:36:00",1
"20/09/11","04:50",0.0,22.9,94.7,1008.1,309.2,0.8,1.0,300.7,0.00,22.0,24.8,"04:41:28",1
"20/09/11","05:00",0.0,23.0,94.7,1008.1,315.8,0.6,1.1,334.3,0.00,22.1,24.9,"04:56:16",1
"20/09/11","05:10",0.0,23.0,94.7,1008.6,288.1,0.8,1.0,273.3,0.00,22.1,24.7,"05:05:04",1
"20/09/11","05:20",0.0,23.0,94.7,1008.3,294.6,0.7,1.1,311.8,0.00,22.1,25.0,"05:13:28",1
"20/09/11","05:30",0.0,23.0,94.7,1008.6,300.5,0.6,1.0,320.9,0.00,22.1,24.9,"05:26:24",1
"20/09/11","05:40",0.0,23.0,94.8,1008.6,309.8,0.7,1.2,315.0,0.00,22.2,24.9,"05:39:36",1
"20/09/11","05:50",0.0,23.0,94.8,1008.8,291.5,0.3,1.2,315.6,0.00,22.2,24.9,"05:49:20",1
"20/09/11","06:00",0.0,23.0,94.8,1009.0,311.2,1.1,1.3,325.9,0.00,22.2,24.8,"05:51:36",1
"20/09/11","06:10",0.0,23.1,94.8,1008.8,305.0,1.0,1.2,319.6,0.00,22.3,24.9,"06:02:00",1
"20/09/11","06:20",0.0,23.0,94.9,1008.8,292.3,0.7,1.2,323.4,0.00,22.2,24.9,"06:19:28",1
"20/09/11","06:30",0.0,23.1,94.9,1008.8,300.1,0.7,1.1,306.5,0.00,22.3,24.8,"06:27:36",1
"20/09/11","06:40",0.0,23.4,94.9,1008.6,287.4,0.6,1.1,323.4,0.02,22.6,25.0,"06:31:04",1
"20/09/11","06:50",0.0,24.1,94.9,1008.8,296.4,0.8,1.4,318.6,0.04,23.3,24.8,"06:42:32",1
"20/09/11","07:00",0.0,24.9,94.5,1008.6,340.0,0.5,1.3,343.3,0.06,24.0,24.9,"06:58:48",1
"20/09/11","07:10",0.0,25.1,94.3,1008.8,326.4,0.6,1.3,339.7,0.03,24.2,25.0,"07:02:48",1
"20/09/11","07:20",0.0,25.1,94.1,1008.8,281.7,0.1,0.4,297.9,0.02,24.1,25.0,"07:17:52",1
"20/09/11","07:30",0.0,25.0,94.2,1008.8,327.7,0.8,1.4,332.8,0.06,24.0,25.1,"07:24:40",1
"20/09/11","07:40",0.0,25.4,94.0,1008.8,5.2,0.5,0.9,346.4,0.11,24.4,25.2,"07:31:12",1
"20/09/11","07:50",0.0,26.1,93.3,1008.8,340.8,0.5,1.1,16.2,0.16,25.0,25.1,"07:44:24",1
"20/09/11","08:00",0.0,26.6,92.2,1008.6,211.0,0.3,1.2,134.2,0.18,25.3,25.2,"07:55:44",1
"20/09/11","08:10",0.0,26.6,90.7,1008.1,198.1,0.5,1.3,186.8,0.23,25.0,25.4,"08:08:24",1
"20/09/11","08:20",0.0,27.2,89.7,1008.6,146.5,0.7,1.8,140.3,0.22,25.4,25.5,"08:15:04",1
"20/09/11","08:30",0.0,27.5,86.9,1008.8,172.7,0.8,1.9,176.8,0.28,25.2,25.6,"08:20:48",1
"20/09/11","08:40",0.0,28.3,83.3,1009.3,168.6,1.0,2.4,114.8,0.31,25.2,25.8,"08:35:12",1
"20/09/11","08:50",0.2,29.0,78.4,1009.5,147.0,1.2,3.1,203.7,0.34,24.9,25.9,"08:48:32",1
"20/09/11","09:00",0.0,29.3,75.1,1009.5,154.0,1.2,2.7,213.1,0.39,24.5,26.2,"08:50:56",1
"20/09/11","09:10",0.0,29.5,73.0,1009.7,132.5,1.3,2.7,133.9,0.37,24.2,26.2,"09:01:28",1
"20/09/11","09:20",0.0,29.4,73.4,1009.5,117.1,1.6,3.1,103.1,0.32,24.2,26.5,"09:12:24",1
"20/09/11","09:30",0.0,29.8,72.1,1009.5,105.0,1.3,3.5,106.4,0.38,24.3,26.3,"09:23:20",1
"20/09/11","09:40",0.0,29.6,72.1,1009.7,103.3,1.2,3.3,97.0,0.27,24.1,26.8,"09:35:12",1
"20/09/11","09:50",0.0,29.1,72.4,1009.5,101.6,1.3,2.4,127.0,0.19,23.7,26.8,"09:41:12",1
"20/09/11","10:00",0.0,28.9,73.6,1008.8,116.3,1.3,4.3,38.4,0.21,23.7,26.9,"09:51:36",1
"20/09/11","10:10",0.0,29.2,74.1,1009.3,122.1,1.1,3.7,154.0,0.25,24.1,27.2,"10:00:48",1
"20/09/11","10:20",0.0,29.3,72.4,1009.0,128.8,1.5,3.3,118.2,0.30,23.9,27.1,"10:15:44",1
"20/09/11","10:30",0.0,29.6,72.6,1009.0,133.0,1.3,3.9,134.4,0.30,24.2,27.2,"10:23:12",1
"20/09/11","10:40",0.0,29.6,72.1,1008.8,137.8,1.2,2.4,87.2,0.22,24.1,27.3,"10:35:20",1
"20/09/11","10:50",0.0,30.1,72.3,1009.3,150.6,1.5,2.9,204.0,0.30,24.6,27.4,"10:49:12",1
"20/09/11","11:00",0.0,30.4,70.5,1009.0,129.8,1.1,2.9,143.4,0.27,24.5,27.4,"10:56:48",1
"20/09/11","11:10",0.0,30.6,70.3,1009.0,135.4,1.2,2.9,110.7,0.28,24.6,27.6,"11:04:24",1
"20/09/11","11:20",0.0,30.1,70.7,1009.0,136.1,1.2,4.1,117.9,0.19,24.2,27.5,"11:12:48",1
"20/09/11","11:30",0.0,30.1,70.3,1008.6,96.4,1.5,3.1,43.7,0.23,24.1,27.7,"11:25:12",1
"20/09/11","11:40",0.0,29.8,70.2,1008.8,145.8,1.6,2.8,190.7,0.18,23.8,27.7,"11:39:04",1
"20/09/11","11:50",0.0,30.0,70.7,1008.6,153.8,1.2,2.4,204.0,0.18,24.1,27.7,"11:41:28",1
"20/09/11","12:00",0.0,30.2,70.3,1008.6,178.7,2.1,6.6,208.4,0.23,24.2,27.6,"11:57:36",1
"20/09/11","12:10",0.0,29.9,69.8,1008.3,150.9,1.5,4.1,118.2,0.14,23.8,27.7,"12:05:44",1
"20/09/11","12:20",0.0,30.0,71.0,1008.3,181.9,1.1,2.8,216.7,0.12,24.2,27.7,"12:10:16",1
"20/09/11","12:30",0.0,29.6,71.3,1007.8,135.6,1.5,3.5,120.9,0.07,23.9,27.7,"12:24:24",1
"20/09/11","12:40",0.0,29.6,71.7,1007.8,114.7,1.0,2.8,89.2,0.07,24.0,27.5,"12:30:02",1
"20/09/11","12:50",0.0,29.3,72.6,1007.6,141.0,1.0,3.5,118.0,0.07,23.9,27.7,"12:40:16",1
"20/09/11","13:00",0.0,29.3,73.6,1006.9,140.3,1.0,2.4,123.1,0.11,24.1,27.7,"12:58:16",1
"20/09/11","13:10",0.0,29.7,73.9,1007.1,113.3,1.0,2.6,103.1,0.16,24.6,27.5,"13:07:04",1
"20/09/11","13:20",0.0,29.9,72.2,1007.4,112.5,1.1,2.2,111.4,0.19,24.4,27.4,"13:10:56",1
"20/09/11","13:30",0.0,30.4,70.8,1007.6,50.3,0.8,1.9,108.1,0.19,24.5,27.8,"13:20:08",1
"20/09/11","13:40",0.0,30.5,69.7,1007.6,66.4,0.7,1.8,53.6,0.12,24.4,27.6,"13:35:20",1
"20/09/11","13:50",0.0,30.3,69.2,1007.8,100.7,1.0,2.5,103.3,0.12,24.1,27.8,"13:49:52",1
"20/09/11","14:00",0.0,30.5,69.4,1007.4,115.8,1.0,2.4,110.1,0.14,24.3,27.9,"13:55:12",1
"20/09/11","14:10",0.0,30.8,68.9,1007.6,40.4,0.3,1.1,139.1,0.15,24.5,27.8,"14:08:56",1
"20/09/11","14:20",0.0,30.9,68.1,1007.8,59.7,0.6,1.3,89.8,0.12,24.4,27.7,"14:19:04",1
"20/09/11","14:30",0.0,30.7,68.3,1007.4,49.6,0.7,1.9,344.7,0.13,24.2,27.6,"14:20:32",1
"20/09/11","14:40",0.0,30.6,69.1,1008.1,33.0,1.0,2.8,19.0,0.13,24.3,27.9,"14:37:20",1
"20/09/11","14:50",0.0,30.5,70.1,1007.6,46.0,0.8,2.0,7.1,0.13,24.5,27.9,"14:43:28",1
"20/09/11","15:00",0.0,30.2,70.4,1008.1,95.8,1.2,2.6,24.2,0.10,24.3,28.0,"14:55:36",1
"20/09/11","15:10",0.0,29.5,72.4,1007.6,96.3,1.5,3.3,113.7,0.09,24.1,27.8,"15:00:08",1
"20/09/11","15:20",0.0,28.7,74.0,1007.4,95.9,1.5,3.9,96.9,0.08,23.6,27.8,"15:19:52",1
"20/09/11","15:30",0.0,28.0,76.0,1007.4,107.7,1.8,4.1,118.3,0.07,23.4,27.8,"15:21:04",1
"20/09/11","15:40",0.0,27.6,77.7,1007.1,82.7,1.3,2.9,39.6,0.04,23.4,27.6,"15:30:40",1
"20/09/11","15:50",0.4,27.0,79.9,1006.7,83.6,1.1,2.5,105.8,0.02,23.3,27.7,"15:42:08",1
"20/09/11","16:00",0.2,26.4,81.9,1007.1,124.4,0.8,2.0,109.3,0.02,23.1,27.7,"15:56:40",1
"20/09/11","16:10",0.2,26.3,83.4,1007.1,146.0,0.6,2.1,116.6,0.02,23.3,27.6,"16:01:28",1
"20/09/11","16:20",0.0,25.9,84.4,1006.9,158.6,0.6,1.6,206.1,0.04,23.1,27.4,"16:15:44",1
"20/09/11","16:30",0.0,26.1,85.3,1007.1,152.5,0.2,0.6,161.4,0.04,23.5,27.4,"16:24:16",1
"20/09/11","16:40",0.0,26.3,85.7,1006.9,301.1,0.6,1.7,344.3,0.03,23.8,27.2,"16:38:32",1
"20/09/11","16:50",0.0,26.2,86.3,1006.7,344.9,0.7,1.6,352.0,0.03,23.8,27.3,"16:42:16",1
"20/09/11","17:00",0.0,26.1,86.8,1006.9,288.9,0.6,1.2,344.2,0.02,23.8,27.2,"16:50:16",1
"20/09/11","17:10",0.0,26.0,87.3,1007.1,273.7,0.6,1.1,238.7,0.01,23.8,27.2,"17:00:08",1
"20/09/11","17:20",0.0,25.9,87.8,1007.4,313.5,1.0,1.9,320.2,0.01,23.8,27.3,"17:16:48",1
"20/09/11","17:30",0.0,25.8,88.2,1007.1,292.3,0.7,1.4,318.1,0.01,23.7,26.9,"17:20:16",1
"20/09/11","17:40",0.0,25.6,88.6,1007.1,299.8,0.8,1.3,337.5,0.00,23.6,27.2,"17:37:20",1
"20/09/11","17:50",0.0,25.5,88.9,1007.4,282.5,0.3,1.0,320.9,0.00,23.6,27.0,"17:40:16",1
"20/09/11","18:00",0.0,25.4,89.1,1007.6,289.7,0.7,1.6,301.3,0.00,23.5,27.1,"17:58:56",1
"20/09/11","18:10",0.0,25.2,89.4,1007.8,306.1,1.1,2.5,352.0,0.00,23.4,27.2,"18:00:56",1
"20/09/11","18:20",0.0,25.1,89.5,1008.1,264.8,0.5,1.0,307.8,0.00,23.3,26.9,"18:14:32",1
"20/09/11","18:30",0.0,25.1,89.7,1007.8,315.9,0.7,1.2,272.0,0.00,23.3,26.9,"18:20:32",1
"20/09/11","18:40",0.0,25.0,90.0,1008.3,264.9,0.6,1.4,233.6,0.00,23.3,26.9,"18:39:52",1
"20/09/11","18:50",0.0,25.0,90.1,1008.6,268.7,0.8,1.7,237.4,0.00,23.3,26.6,"18:40:24",1
"20/09/11","19:00",0.0,24.9,90.4,1008.3,304.1,0.5,1.2,262.1,0.00,23.3,26.9,"18:51:20",1
"20/09/11","19:10",0.0,24.7,90.5,1008.6,339.9,0.7,1.3,355.5,0.00,23.1,26.7,"19:02:48",1
"20/09/11","19:20",0.0,24.5,90.7,1008.8,305.6,0.7,1.1,324.0,0.00,22.9,26.5,"19:16:24",1
"20/09/11","19:30",0.0,24.5,90.9,1008.8,285.3,0.6,1.2,335.1,0.00,23.0,26.5,"19:20:08",1
"20/09/11","19:40",0.0,24.4,91.1,1009.0,291.1,0.6,1.3,339.4,0.00,22.9,26.6,"19:36:08",1
"20/09/11","19:50",0.0,24.4,91.2,1009.0,296.9,0.6,0.9,281.7,0.00,22.9,26.5,"19:44:24",1
"20/09/11","20:00",0.0,24.5,91.4,1009.5,334.7,0.7,1.4,340.5,0.00,23.0,26.5,"19:50:02",1
"20/09/11","20:10",0.0,24.5,91.5,1009.0,320.3,0.8,1.4,349.0,0.00,23.1,26.4,"20:08:56",1
"20/09/11","20:20",0.0,24.4,91.7,1009.0,322.5,0.8,1.8,335.8,0.00,23.0,26.6,"20:12:48",1
"20/09/11","20:30",0.0,24.4,91.8,1008.8,287.5,0.6,1.1,297.4,0.00,23.0,26.5,"20:20:32",1
"20/09/11","20:40",0.0,24.4,92.0,1009.0,320.1,0.7,1.4,337.5,0.00,23.1,26.3,"20:32:16",1
"20/09/11","20:50",0.0,24.3,92.1,1009.0,297.8,0.6,1.0,321.9,0.00,23.0,26.2,"20:46:40",1
"20/09/11","21:00",0.0,24.3,92.2,1008.8,293.5,0.6,0.9,307.3,0.00,23.0,26.2,"20:58:32",1
"20/09/11","21:10",0.0,24.2,92.3,1008.8,303.5,0.7,1.0,332.3,0.00,22.9,26.2,"21:01:44",1
"20/09/11","21:20",0.0,24.2,92.5,1008.8,322.0,0.7,1.0,325.6,0.00,22.9,26.3,"21:11:20",1
"20/09/11","21:30",0.0,24.1,92.7,1008.8,329.1,1.0,1.8,346.2,0.00,22.9,26.1,"21:22:48",1
"20/09/11","21:40",0.0,24.0,92.7,1008.6,302.3,0.8,1.8,336.8,0.00,22.8,26.1,"21:33:28",1
"20/09/11","21:50",0.0,23.9,92.8,1008.6,317.1,0.7,1.1,326.6,0.00,22.7,26.1,"21:42:16",1
"20/09/11","22:00",0.0,23.9,93.0,1008.6,295.5,0.8,1.3,287.1,0.00,22.7,26.1,"21:55:44",1
"20/09/11","22:10",0.0,23.9,93.1,1009.3,310.7,0.7,1.1,324.0,0.00,22.8,25.9,"22:06:56",1
"20/09/11","22:20",0.0,23.9,93.2,1009.0,324.7,1.0,1.3,339.6,0.00,22.8,26.0,"22:14:00",1
"20/09/11","22:30",0.0,23.6,93.2,1008.8,311.2,0.6,1.1,333.6,0.00,22.5,25.9,"22:20:40",1
"20/09/11","22:40",0.0,23.5,93.4,1008.8,306.7,0.6,0.9,318.3,0.00,22.4,25.8,"22:34:48",1
"20/09/11","22:50",0.0,23.6,93.5,1009.0,332.5,1.2,1.7,329.2,0.00,22.5,25.8,"22:42:32",1
"20/09/11","23:00",0.0,23.6,93.6,1009.0,318.6,1.0,1.2,334.7,0.00,22.5,25.8,"22:50:08",1
"20/09/11","23:10",0.0,23.6,93.7,1009.0,326.6,1.1,1.7,341.1,0.00,22.6,25.7,"23:06:16",1
"20/09/11","23:20",0.0,23.6,93.7,1009.0,281.2,0.6,1.0,324.8,0.00,22.6,25.6,"23:10:16",1
"20/09/11","23:30",0.0,23.6,93.8,1008.8,297.1,1.0,1.9,335.1,0.00,22.6,25.7,"23:26:32",1
"20/09/11","23:40",0.0,23.6,93.9,1008.8,289.6,0.6,1.0,311.2,0.00,22.6,25.7,"23:30:56",1
"20/09/11","23:50",0.0,23.6,93.9,1008.8,292.8,0.7,1.0,307.7,0.00,22.6,25.8,"23:44:08",1
"20/09/11","24:00",0.0,23.6,94.0,1008.6,307.1,1.0,1.1,318.5,0.00,22.6,25.5,"23:52:48",1
